User: anonymous   Login
Location: Unspecified
(0.0000°N, 0.0000°E)
Time: 20:02:36
(UTC+00:00)
Language:

STARLINK-31670 - Orbit

View from above orbital plane
View from above orbital plane
View from above satellite
View from above satellite

Ground track
Ground track

The orbit is defined by the following mean orbital elements,

1 59490U          26145.64758567 +.00000000 +00000-0 -93902-4 0 00004
2 59490  42.9992 276.5413 0001063 267.2945  92.7785 15.27569352    00
Epoch (UTC): 25 May 2026 15:32:31
Eccentricity: 0.0001063
inclination: 42.9992°
perigee height: 482 km
apogee height: 484 km
right ascension of ascending node: 276.5413°
argument of perigee: 267.2945°
revolutions per day: 15.27569352
mean anomaly at epoch: 92.7785°

The dashed part of the orbit path shows where the satellite is in the earth's shadow,  

DLR